Terug naar catalogus

CZ-6A DEB

ActiefPO
NORAD 61810·DEBRIS·🇨🇳 China

Gelanceerd Aug 6, 2024 vanaf Taiyuan Satellite Launch Center

Loading…

Volgende Passages (komende 24 uur)

TLE

VersSource: Space-Track

Epoch: Sep 13, 2026, 17:51 UTC

1 61810U 24140ACA 26256.74404971  .00002181  00000-0  74774-3 0  9998
2 61810  88.9872 263.6142 0187034 166.5294 194.0995 14.26454308105246

Volg CZ-6A DEB in realtime met AllMySat

Download on the App Store